Regional Weather Roundup
Issued by NWS Charleston, SC

Current Version | Previous Version | Graphics & Text | Print | Product List | Glossary Off
Versions: 1 2 3 4 5 6 7 8 9 10 11 12 13 14 15 16 17 18 19 20 21 22 23 24 25 26 27 28 29 30 31 32 33 34 35 36 37 38 39 40 41 42 43 44 45 46 47 48 49 50

000
ASUS42 KCHS 250827
RWRCHS

REGIONAL WEATHER ROUNDUP
NATIONAL WEATHER SERVICE CHARLESTON SC
400 AM EDT TUE JUL 25 2017

NOTE: "FAIR" INDICATES FEW OR NO CLOUDS BELOW 12,000 FEET WITH NO
SIGNIFICANT WEATHER AND/OR OBSTRUCTIONS TO VISIBILITY.

NOT ALL STATIONS ARE QUALITY CONTROLLED. USE DATA WITH CAUTION...
ESPECIALLY DEWPOINT OBSERVATIONS.

SCZ027-030-031-034>040-042>050-250900-
...SOUTHEAST SOUTH CAROLINA...

CITY           SKY/WX    TMP DP  RH WIND       PRES   REMARKS
N CHARLESTON   MOCLDY    76  74  93 S3        30.01R
WATERFRONT PRK   N/A     78  76  94 VRB3      29.99R
JOHNS ISLAND   FAIR      79  75  89 W5        30.01S
PINOPOLIS        N/A     75  75 100 CALM      29.93S
MONCKS CORNER  FAIR      72  72 100 CALM      30.02R
SUMMERVILLE    FAIR      73  72  94 CALM      30.03R
BEAUFORT MCAS  MOCLDY    77  76  96 SW5       30.00S
BEAUFORT ARPT  FAIR      77  73  88 SW3       30.01R
HILTON HEAD IS CLOUDY    79  77  94 SW6       30.02R
WALTERBORO     PTSUNNY   73  72  94 CALM      30.02S
ALLENDALE      NOT AVBL

...SOUTHERN MIDLANDS AND PEE DEE...

CITY           SKY/WX    TMP DP  RH WIND       PRES   REMARKS
GEORGETOWN     FAIR      72  72 100 CALM      30.02S
KINGSTREE      FAIR      72  70  94 CALM      30.01S
ORANGEBURG     CLOUDY    74  72  93 NW3       30.01S
BARNWELL       FAIR      75  75 100 CALM      30.02S
AIKEN          FAIR      72  70  94 S3        30.06R
MANNING        FAIR      72  72 100 N17       30.01S
COLUMBIA       MOCLDY    74  72  93 CALM      30.01R
SUMTER         CLOUDY    73  71  93 S3        29.99R
FLORENCE       CLOUDY    73  73 100 CALM      30.02R
MYRTLE BEACH   CLOUDY    75  73  93 W3        30.02S
N MYRTLE BEACH MOCLDY    75  73  93 W3        30.00F

$$

GAZ063-065-086>088-099>101-113>116-118-119-134>141-150-250900-
...SOUTHEAST GEORGIA...

CITY           SKY/WX    TMP DP  RH WIND       PRES   REMARKS
SAVANNAH ARPT  PTCLDY   N/A N/A N/A SW6       30.02R
HUNTER AAF     CLOUDY    77  74  93 SW7       29.99R
FORT STEWART   PTCLDY    77  73  88 SW9       30.00R
STATESBORO     PTCLDY    77  77 100 W5        30.02R
SYLVANIA       CLOUDY    75  75 100 CALM      30.02S
CLAXTON        FAIR      77  75  94 CALM      30.02S

...CSRA...CENTRAL AND FAR SOUTHEAST GEORGIA...

CITY           SKY/WX    TMP DP  RH WIND       PRES   REMARKS
THOMSON        MOCLDY    71  71  97 CALM      30.08S
AUGUSTA-BUSH   MOCLDY    74  72  93 CALM      30.02R FOG
AUGUSTA-DANIEL MOCLDY    75  70  84 SE3       30.03R
SWAINSBORO     FAIR      73  73 100 CALM      30.03S
VIDALIA        MOCLDY    77  73  88 CALM      30.04R
EASTMAN        PTSUNNY   75  75 100 CALM      30.07R
HAZLEHURST     FAIR      77  77 100 SW5       30.02S
ALMA           CLEAR     76  74  93 CALM      30.03S
WAYCROSS       PTCLDY    79  79 100 SW5       30.04S
JESUP          NOT AVBL
BAXLEY         FAIR      77  77 100 CALM      30.03S
BRUNSWICK      PTCLDY    79  77  94 SW6       30.04R
SAINT SIMONS   PTCLDY    79  76  90 SW9       30.03S

$$

SCZ027-028-034-036>038-045-046-048>050-GAZ119-141-250900-
...LAKE AND SUPPLEMENTAL COASTAL OBSERVATIONS...

STATION/POSITION TIME  TEMP    WIND        PRES    WAVE   SWELL
                       AIR SEA DIR/SP/G            HT/PER HT/PER/DIR
                 (UTC) (F)     (DEG/KT/KT) (MB)    (FT/S) (FT/S/D)
WINYAH BAY       0730   75     320/  2     1016.0S
LAKE MURRAY      NOT AVBL
ACE BASIN NERRS  0730   78        CALM     1016.0S
FORT PULASKI     0800   78 85  260/  5/  7 1016.7
SAPELO ISLAND    0800   79     240/  9     1017.0

$$

ANZ835-935-AMZ111-154-330-350-352-354-370-450-454-472-250900-
...C-MAN AND BUOY OBSERVATIONS...

STATION/POSITION TIME  TEMP    WIND        PRES    WAVE   SWELL
                       AIR SEA DIR/SP/G            HT/PER HT/PER/DIR
                 (UTC) (F)     (DEG/KT/KT) (MB)    (FT/S) (FT/S/D)
BUOY 41004       0810   81 81  250/  6/  8 1016.0
BUOY 41008       0750   81 80  230/ 14/ 16 1016.4R   2/10   2/ 70/10
FOLLY BEACH CMAN 0800   79     250/  4/  6 1016.9R
CAPERS NEARSHORE 0808   80 84  230/ 14/ 17 1016.1R
FRIPP NEARSHORE  0808   83 84  240/ 10/ 14 1015.9R


STATION/POSITION TIME  TEMP    WIND        PRES    WAVE   SWELL
                       AIR SEA DIR/SP/G            HT/PER HT/PER/DIR
                 (UTC) (F)     (DEG/KT/KT) (MB)    (FT/S) (FT/S/D)
5E ST. MARYS GA  0800      76                N/A     2/ 9
FRYING PAN BUOY  0810   81 81  220/ 12/ 14 1015.8
BUOY 41025       0750   82 84  250/ 17/ 21 1014.6S   6/ 6   2/140/11
CAPE LOOKOUT NC  0800   80     240/ 10/ 13 1015.3R
BUOY 41002       0750   83 83  200/ 17/ 19 1018.2F   5/ 7   2/ 40/11
BUOY 41010       0810   84 84  180/ 12/ 14 1018.8
ST AUGUSTINE FL  0800   78 74  240/  4/  5 1018.1F


$$



USA.gov is the U.S. government's official web portal to all federal, state and local government web resources and services.